* Astronomy

Members Login
Username 
 
Password 
    Remember Me  
Post Info TOPIC: Asteroid 2012 AF3


L

Posts: 131433
Date:
Asteroid 2012 AF3
Permalink  
 


Orbital elements:
2012 AF3                                                 Earth MOID = 0.0191 AU
Epoch 2012 Mar. 14.0 TT = JDT 2456000.5                 MPC
M 154.81611              (2000.0)            P               Q
n   0.90260543     Peri.  251.70686     +0.97572973     +0.04746816
a   1.0604025      Node   105.14078     +0.02753633     +0.94187609
e   0.1421291      Incl.   12.79474     -0.21724006     +0.33259015
P   1.09           H   24.7           G   0.15           U   8

MPEC 2012 - A33



__________________
Page 1 of 1  sorted by
 
Quick Reply

Please log in to post quick replies.



Create your own FREE Forum
Report Abuse
Powered by ActiveBoard